Вернуться в каталог

DELTA 1 R/B

АктивенSSO
NORAD 3036·ROCKET BODY·🇺🇸 United States

Запущен Nov 10, 1967 с Vandenberg Space Force Base

Loading…

Ближайшие Пролёты (ближайшие 24 часа)

TLE

СвежийSource: Space-Track

Эпоха: Sep 14, 2026, 13:13 UTC

1  3036U 67114B   26257.55125669 -.00000023  00000-0  14725-3 0  9990
2  3036 102.0166 359.8264 0047824 328.5389  41.4075 12.54140384693551

Отслеживайте DELTA 1 R/B в реальном времени с AllMySat

Download on the App Store